Stündliche Wetter Abriola

Heute, 17 Juni, Donnerstag

Zeit Temperatur Niederschläge Wind Luftdruck Luftfeuchtigkeit
00:00 +12°C° 0 mm 1 m/S 659 mmHg 63%
01:00 +11°C° 0 mm 1 m/S 659 mmHg 62%
02:00 +11°C° 0 mm 1 m/S 659 mmHg 61%
03:00 +11°C° 0 mm 1 m/S 659 mmHg 60%
04:00 +11°C° 0 mm 1 m/S 659 mmHg 58%
05:00 +13°C° 0 mm 1 m/S 660 mmHg 54%
06:00 +14°C° 0 mm 0 m/S 660 mmHg 49%
07:00 +16°C° 0 mm 0 m/S 661 mmHg 44%
08:00 +20°C° 0 mm 1 m/S 662 mmHg 40%
09:00 +22°C° 0 mm 1 m/S 662 mmHg 36%
10:00 +23°C° 0 mm 2 m/S 663 mmHg 32%
11:00 +24°C° 0 mm 2 m/S 663 mmHg 30%
12:00 +25°C° 0 mm 2 m/S 663 mmHg 28%
13:00 +26°C° 0 mm 2 m/S 663 mmHg 26%
14:00 +26°C° 0 mm 3 m/S 663 mmHg 26%
15:00 +26°C° 0 mm 3 m/S 662 mmHg 26%
16:00 +26°C° 0 mm 3 m/S 662 mmHg 26%
17:00 +22°C° 0 mm 3 m/S 662 mmHg 37%
18:00 +20°C° 0 mm 2 m/S 661 mmHg 48%
19:00 +18°C° 0 mm 1 m/S 661 mmHg 59%
20:00 +16°C° 0 mm 1 m/S 661 mmHg 64%
21:00 +14°C° 0 mm 1 m/S 661 mmHg 70%
22:00 +13°C° 0 mm 1 m/S 661 mmHg 76%
23:00 +13°C° 0 mm 1 m/S 660 mmHg 77%

Morgen, 18 Juni, Freitag

Zeit Temperatur Niederschläge Wind Luftdruck Luftfeuchtigkeit
00:00 +13°C° 0 mm 1 m/S 660 mmHg 77%
01:00 +13°C° 0 mm 1 m/S 660 mmHg 77%
02:00 +13°C° 0 mm 1 m/S 660 mmHg 75%
03:00 +13°C° 0 mm 1 m/S 660 mmHg 74%
04:00 +13°C° 0 mm 1 m/S 660 mmHg 72%
05:00 +15°C° 0 mm 1 m/S 660 mmHg 64%
06:00 +16°C° 0 mm 0 m/S 661 mmHg 57%
07:00 +18°C° 0 mm 0 m/S 662 mmHg 49%
08:00 +22°C° 0 mm 1 m/S 662 mmHg 45%
09:00 +23°C° 0 mm 1 m/S 663 mmHg 41%
10:00 +25°C° 0 mm 2 m/S 663 mmHg 36%
11:00 +25°C° 0 mm 2 m/S 663 mmHg 35%
12:00 +26°C° 0 mm 3 m/S 663 mmHg 35%
13:00 +26°C° 0 mm 3 m/S 663 mmHg 34%
14:00 +25°C° 0.1 mm 3 m/S 662 mmHg 39%
15:00 +24°C° 0.1 mm 3 m/S 662 mmHg 45%
16:00 +22°C° 0.1 mm 3 m/S 662 mmHg 51%
17:00 +20°C° 0.9 mm 2 m/S 661 mmHg 60%
18:00 +18°C° 0.9 mm 2 m/S 661 mmHg 69%
19:00 +18°C° 0.9 mm 1 m/S 661 mmHg 79%
20:00 +16°C° 0 mm 1 m/S 661 mmHg 79%
21:00 +15°C° 0 mm 1 m/S 661 mmHg 80%
22:00 +14°C° 0 mm 1 m/S 661 mmHg 80%
23:00 +14°C° 0 mm 1 m/S 660 mmHg 78%

übermorgen, 19 Juni, Samstag

Zeit Temperatur Niederschläge Wind Luftdruck Luftfeuchtigkeit
00:00 +14°C° 0 mm 1 m/S 660 mmHg 76%
01:00 +14°C° 0 mm 1 m/S 660 mmHg 73%
02:00 +14°C° 0 mm 1 m/S 660 mmHg 72%
03:00 +14°C° 0 mm 1 m/S 660 mmHg 71%
04:00 +14°C° 0 mm 1 m/S 660 mmHg 70%
05:00 +16°C° 0 mm 1 m/S 660 mmHg 65%
06:00 +19°C° 0 mm 1 m/S 661 mmHg 61%
07:00 +21°C° 0 mm 1 m/S 662 mmHg 56%
08:00 +23°C° 0 mm 2 m/S 662 mmHg 49%
09:00 +25°C° 0 mm 2 m/S 662 mmHg 43%
10:00 +27°C° 0 mm 2 m/S 663 mmHg 36%
11:00 +28°C° 0 mm 3 m/S 663 mmHg 33%
12:00 +29°C° 0 mm 3 m/S 662 mmHg 30%
13:00 +30°C° 0 mm 4 m/S 662 mmHg 27%
14:00 +30°C° 0 mm 4 m/S 662 mmHg 29%
15:00 +29°C° 0 mm 4 m/S 662 mmHg 31%
16:00 +28°C° 0 mm 4 m/S 662 mmHg 33%
17:00 +26°C° 0 mm 3 m/S 661 mmHg 42%
18:00 +24°C° 0 mm 2 m/S 661 mmHg 50%
19:00 +21°C° 0 mm 1 m/S 661 mmHg 58%
20:00 +20°C° 0 mm 1 m/S 660 mmHg 60%
21:00 +19°C° 0 mm 1 m/S 660 mmHg 62%
22:00 +18°C° 0 mm 1 m/S 660 mmHg 64%
23:00 +16°C° 0 mm 1 m/S 660 mmHg 65%

20 Juni, Sonntag

Zeit Temperatur Niederschläge Wind Luftdruck Luftfeuchtigkeit
00:00 +16°C° 0 mm 1 m/S 660 mmHg 65%
01:00 +16°C° 0 mm 1 m/S 660 mmHg 66%
02:00 +16°C° 0 mm 1 m/S 659 mmHg 66%
03:00 +16°C° 0 mm 1 m/S 659 mmHg 66%
04:00 +16°C° 0 mm 1 m/S 659 mmHg 66%
05:00 +19°C° 0 mm 1 m/S 660 mmHg 60%
06:00 +21°C° 0 mm 1 m/S 660 mmHg 54%
07:00 +23°C° 0 mm 1 m/S 661 mmHg 48%
08:00 +25°C° 0 mm 2 m/S 661 mmHg 43%
09:00 +27°C° 0 mm 3 m/S 662 mmHg 38%
10:00 +29°C° 0 mm 3 m/S 662 mmHg 32%
11:00 +30°C° 0 mm 4 m/S 662 mmHg 29%
12:00 +32°C° 0 mm 4 m/S 662 mmHg 27%
13:00 +33°C° 0 mm 4 m/S 662 mmHg 24%
14:00 +33°C° 0 mm 4 m/S 662 mmHg 25%
15:00 +33°C° 0 mm 4 m/S 662 mmHg 25%
16:00 +32°C° 0 mm 4 m/S 662 mmHg 26%
17:00 +29°C° 0 mm 3 m/S 661 mmHg 33%
18:00 +26°C° 0 mm 2 m/S 661 mmHg 41%
19:00 +24°C° 0 mm 1 m/S 660 mmHg 48%
20:00 +22°C° 0 mm 1 m/S 660 mmHg 51%
21:00 +21°C° 0 mm 1 m/S 660 mmHg 55%
22:00 +20°C° 0 mm 1 m/S 660 mmHg 58%
23:00 +20°C° 0 mm 1 m/S 659 mmHg 58%

21 Juni, Montag

Zeit Temperatur Niederschläge Wind Luftdruck Luftfeuchtigkeit
00:00 +20°C° 0 mm 1 m/S 659 mmHg 59%
01:00 +19°C° 0 mm 1 m/S 659 mmHg 59%
02:00 +19°C° 0 mm 1 m/S 659 mmHg 59%
03:00 +19°C° 0 mm 1 m/S 659 mmHg 60%
04:00 +19°C° 0 mm 1 m/S 659 mmHg 61%
05:00 +21°C° 0 mm 1 m/S 659 mmHg 56%
06:00 +23°C° 0 mm 1 m/S 660 mmHg 51%
07:00 +25°C° 0 mm 1 m/S 661 mmHg 46%
08:00 +27°C° 0 mm 1 m/S 661 mmHg 40%
09:00 +29°C° 0 mm 1 m/S 662 mmHg 33%
10:00 +31°C° 0 mm 2 m/S 662 mmHg 27%
11:00 +31°C° 0 mm 2 m/S 662 mmHg 26%
12:00 +31°C° 0 mm 3 m/S 662 mmHg 26%
13:00 +32°C° 0 mm 4 m/S 662 mmHg 25%
14:00 +32°C° 0 mm 4 m/S 662 mmHg 27%
15:00 +30°C° 0 mm 3 m/S 662 mmHg 28%
16:00 +29°C° 0 mm 3 m/S 662 mmHg 30%
17:00 +27°C° 0 mm 3 m/S 661 mmHg 37%
18:00 +25°C° 0 mm 2 m/S 661 mmHg 44%
19:00 +23°C° 0 mm 2 m/S 660 mmHg 51%
20:00 +21°C° 0 mm 2 m/S 660 mmHg 53%
21:00 +20°C° 0 mm 2 m/S 660 mmHg 56%
22:00 +19°C° 0 mm 2 m/S 660 mmHg 58%
23:00 +19°C° 0 mm 2 m/S 660 mmHg 58%

22 Juni, Dienstag

Zeit Temperatur Niederschläge Wind Luftdruck Luftfeuchtigkeit
00:00 +18°C° 0 mm 2 m/S 659 mmHg 58%
01:00 +18°C° 0 mm 2 m/S 659 mmHg 58%
02:00 +18°C° 0 mm 2 m/S 659 mmHg 56%
03:00 +18°C° 0 mm 2 m/S 659 mmHg 53%
04:00 +17°C° 0 mm 2 m/S 658 mmHg 50%
05:00 +20°C° 0 mm 2 m/S 659 mmHg 45%
06:00 +23°C° 0 mm 2 m/S 660 mmHg 40%
07:00 +25°C° 0 mm 2 m/S 660 mmHg 35%
08:00 +27°C° 0 mm 2 m/S 661 mmHg 31%
09:00 +30°C° 0 mm 3 m/S 662 mmHg 27%
10:00 +33°C° 0 mm 3 m/S 662 mmHg 23%
11:00 +34°C° 0 mm 4 m/S 662 mmHg 22%
12:00 +34°C° 0 mm 5 m/S 663 mmHg 20%
13:00 +35°C° 0 mm 5 m/S 663 mmHg 19%
14:00 +35°C° 0 mm 5 m/S 663 mmHg 21%
15:00 +34°C° 0 mm 5 m/S 663 mmHg 22%
16:00 +33°C° 0 mm 4 m/S 663 mmHg 23%
17:00 +30°C° 0 mm 4 m/S 662 mmHg 29%
18:00 +28°C° 0 mm 3 m/S 661 mmHg 34%
19:00 +26°C° 0 mm 2 m/S 661 mmHg 40%
20:00 +24°C° 0 mm 2 m/S 661 mmHg 43%
21:00 +23°C° 0 mm 2 m/S 661 mmHg 45%
22:00 +20°C° 0 mm 2 m/S 660 mmHg 48%
23:00 +20°C° 0 mm 2 m/S 660 mmHg 48%
Mehr zeigen

Wir brauchen deine Erlaubnis

Meteoprog und unser Service Anbieter werden persönliche Daten aufbewahren, so wie Cookies, Geräte Bezeichnung oder ähnliche Technologien von deinem Gerät und Prozess, so wie Persönliche Daten Inhalte und Werbungen, genauso wie social Media und den Verkehr zu analysieren.

  • Aufbewahrung und/oder Zugang zu deiner Geräte Informationen.

    Cookies, Geräte Bezeichnung oder andere Informationen, können aufbewahrt oder Zugang zu deinem Gerät erhalten, für den Grund, der oben angegeben wird.

  • Personalisierte Werbung und Inhalte, Messungen, Einblick in das Publikum und Produkt Entwicklung.

    Werbungen und Inhalte können personalisiert werden, basierend auf ein Profil. Mehr Daten können besser personalisierte Werbungen und Inhalte hinzufügen. Werbung und Inhalte können gezeigt und gemessen werden. Einblicke über das Publikum, welche die Werbung gesehen haben und den Inhalt, können abgeleitet werden. So wie Daten können genutzt werden, um es zu verbessern oder die Benutzer Erfahrung zu verbessern das System und die Software.

Wenn du “Ich stimme zu” klickst, erlaubst du uns, die Cookies zu benutzen die Geräte Bezeichnung, den Web oder ähnliche Technologien zu benutzen. Deine Settings, können in deinem Gerät bei deinem Browser geändert werden.

Für den bestimmten Zweck, berechtigten Interessen beruhen darauf, mehr als auf den Inhalt. Du kannst mehr darüber in unseren Privaten und Cookie Politik lesen.